Location: Boleita
(10.4833°N, 66.8167°W)
Time: 02:14:16
(UTC+00:00)

Cosmos 1340 Rocket - Pass Details

Date: 08 November 2025
Orbit: 486 x 519 km, 81.2° (Epoch: 09 December)

Event Time Altitude Azimuth Distance (km) Brightness Sun altitude
Exits shadow 09:24:50 - 348° (NNW) 2,352 5.8 -13.9°
Reaches altitude 10° 09:26:25 10° 346° (NNW) 1,691 5.0 -13.6°
Maximum altitude 09:30:05 60° 265° (W) 564 2.6 -12.7°
Drops below altitude 10° 09:33:42 10° 185° (S) 1,675 5.4 -11.8°
Sets 09:35:48 0° 181° (S) 2,552 6.4 -11.3°
